User: anonymous   Login
Location: Pensacola
(30.4142°N, 87.2155°W)
Time: 01:41:48
(UTC-05:00)
Language:

KAITUO 1B - Orbit

View from above orbital plane
View from above orbital plane
View from above satellite
View from above satellite

Ground track
Ground track

The orbit data is extracted from the following two-line orbital elements,

1 40912U 15049P   23160.68661495  .00036370  00000-0  81288-3 0  9991
2 40912  97.4170 178.3226 0011324 110.2219 250.0247 15.43356267428457
Epoch (UTC): 09 June 2023 16:28:43
Eccentricity: 0.0011324
inclination: 97.4170°
perigee height: 428 km
apogee height: 444 km
right ascension of ascending node: 178.3226°
argument of perigee: 110.2219°
revolutions per day: 15.43356267
mean anomaly at epoch: 250.0247°
orbit number at epoch: 42845

The dashed part of the orbit path shows where the satellite is in the earth's shadow,  

DLR